User: anonymous   Login
Location: Carnières
(50.1682°N, 3.3474°E)
Time: 11:46:29
(UTC+00:00)
Language:

CZ-2C R/B - Orbit

View from above orbital plane
View from above orbital plane
View from above satellite
View from above satellite

Ground track
Ground track

The orbit data is extracted from the following two-line orbital elements,

1 31114U 07010B   24200.89814920  .00000491  00000-0  24689-3 0  9993
2 31114  98.3365 335.1195 0058426 235.4559 124.1095 14.19815322894730
Epoch (UTC): 18 July 2024 21:33:20
Eccentricity: 0.0058426
inclination: 98.3365°
perigee height: 784 km
apogee height: 868 km
right ascension of ascending node: 335.1195°
argument of perigee: 235.4559°
revolutions per day: 14.19815322
mean anomaly at epoch: 124.1095°
orbit number at epoch: 89473

The dashed part of the orbit path shows where the satellite is in the earth's shadow,  

DLR